Weather History for KGLW - April, 2014

Change the Weather History Date:

Thursday, April 10, 2014

  Actual Average Record
Temperature  
Mean Temperature 57 °F -  
Max Temperature 75 °F 66 °F 86 °F (2011)
Min Temperature 39 °F 41 °F 23 °F (1960)
Degree Days  
Heating Degree Days 8    
Growing Degree Days 7 (Base 50)    
Moisture  
Dew Point 37 °F    
Average Humidity 47    
Maximum Humidity 83    
Minimum Humidity 29    
Precipitation  
Precipitation 0.00 in - - ()
Sea Level Pressure  
Sea Level Pressure 30.07 in    
Wind  
Wind Speed 6 mph (SSW)    
Max Wind Speed 18 mph    
Max Gust Speed 30 mph    
Visibility 10 miles    
Events      
Averages and records for this station are not official NWS values.
T = Trace of Precipitation, MM = Missing Value Source: NWS Daily Summary

Daily Weather History Graph

Daily Weather History Graph

Search for Another Location

Airport or City:

Trip Planner

Search our weather history database for the weather conditions in past years. The results will help you decide how hot, cold, wet, or windy it might be!

Date:

Astronomy

Apr. 10, 2014 Rise Set
Actual Time 6:16 AM CDT 7:14 PM CDT
Civil Twilight 5:49 AM CDT 7:40 PM CDT
Nautical Twilight 5:18 AM CDT 8:12 PM CDT
Astronomical Twilight 4:46 AM CDT 8:45 PM CDT
Moon 3:03 PM CDT (4/10) 3:32 AM CDT (4/10)
Length of Visible Light 13h 50m
Length of Day
12h 57m
Waxing Gibbous, 80% of the Moon is Illuminated
Apr 10
Waxing Gibbous
Apr 15
Full
Apr 22
Last Quarter
Apr 29
New
May 6
First Quarter

Hourly Weather History & Observations

Time (CDT) Temp. Windchill Dew Point Humidity Pressure Visibility Wind Dir Wind Speed Gust Speed Precip Events Conditions
12:15 AM 42.3 °F - 34.9 °F 75% 30.11 in 10.0 mi Calm Calm - N/A   Clear
12:35 AM 42.1 °F - 35.2 °F 77% 30.11 in 10.0 mi Calm Calm - N/A   Clear
12:55 AM 41.9 °F - 36.0 °F 79% 30.11 in 10.0 mi Calm Calm - N/A   Clear
1:15 AM 41.0 °F - 35.4 °F 81% 30.11 in 10.0 mi Calm Calm - N/A   Clear
1:35 AM 41.2 °F - 34.7 °F 78% 30.11 in 10.0 mi Calm Calm - N/A   Clear
1:55 AM 41.2 °F - 34.0 °F 76% 30.11 in 10.0 mi Calm Calm - N/A   Clear
2:15 AM 39.9 °F - 35.1 °F 83% 30.11 in 10.0 mi Calm Calm - N/A   Clear
2:35 AM 40.3 °F - 34.7 °F 80% 30.11 in 10.0 mi Calm Calm - N/A   Clear
2:55 AM 42.6 °F - 34.2 °F 72% 30.11 in 10.0 mi Calm Calm - N/A   Clear
3:15 AM 42.8 °F - 33.6 °F 70% 30.10 in 10.0 mi Calm Calm - N/A   Clear
3:35 AM 43.2 °F - 33.1 °F 68% 30.10 in 10.0 mi Calm Calm - N/A   Clear
3:55 AM 43.0 °F - 32.9 °F 68% 30.10 in 10.0 mi Calm Calm - N/A   Clear
4:15 AM 43.7 °F - 32.2 °F 64% 30.11 in 10.0 mi Calm Calm - N/A   Clear
4:35 AM 43.3 °F - 32.2 °F 65% 30.10 in 10.0 mi Calm Calm - N/A   Clear
4:55 AM 43.9 °F 42.3 °F 32.0 °F 63% 30.11 in 10.0 mi South 3.5 mph - N/A   Clear
5:15 AM 44.1 °F 42.5 °F 32.0 °F 63% 30.11 in 10.0 mi South 3.5 mph - N/A   Clear
5:35 AM 44.2 °F 42.7 °F 32.0 °F 62% 30.12 in 10.0 mi South 3.5 mph - N/A   Clear
5:55 AM 44.1 °F 42.5 °F 32.2 °F 63% 30.12 in 10.0 mi SSW 3.5 mph - N/A   Clear
6:15 AM 44.4 °F 42.9 °F 32.2 °F 62% 30.12 in 10.0 mi SSW 3.5 mph - N/A   Clear
6:35 AM 45.1 °F 42.0 °F 32.4 °F 61% 30.13 in 10.0 mi SSW 5.8 mph - N/A   Clear
6:55 AM 46.4 °F 43.5 °F 32.4 °F 58% 30.13 in 10.0 mi South 5.8 mph - N/A   Clear
7:15 AM 47.5 °F - 32.7 °F 57% 30.14 in 10.0 mi South 4.6 mph - N/A   Clear
7:35 AM 48.7 °F - 33.4 °F 56% 30.14 in 10.0 mi South 8.1 mph - N/A   Clear
7:55 AM 50.4 °F - 34.0 °F 53% 30.14 in 10.0 mi South 6.9 mph - N/A   Clear
8:15 AM 52.2 °F - 35.2 °F 53% 30.13 in 10.0 mi South 6.9 mph - N/A   Clear
8:35 AM 54.3 °F - 36.7 °F 51% 30.13 in 10.0 mi SSW 8.1 mph - N/A   Clear
8:55 AM 56.5 °F - 37.0 °F 48% 30.13 in 10.0 mi SSW 11.5 mph 16.1 mph N/A   Clear
9:15 AM 58.1 °F - 37.8 °F 47% 30.13 in 10.0 mi SSW 13.8 mph 19.6 mph N/A   Clear
9:35 AM 59.2 °F - 37.8 °F 45% 30.13 in 10.0 mi SSW 10.4 mph 21.9 mph N/A   Clear
9:55 AM 60.6 °F - 38.1 °F 43% 30.13 in 10.0 mi South 10.4 mph 18.4 mph N/A   Clear
10:15 AM 61.9 °F - 38.5 °F 42% 30.12 in 10.0 mi South 12.7 mph 19.6 mph N/A   Clear
10:35 AM 63.7 °F - 38.3 °F 39% 30.11 in 10.0 mi SSW 12.7 mph 18.4 mph N/A   Clear
10:55 AM 64.6 °F - 37.8 °F 37% 30.11 in 10.0 mi SSW 13.8 mph 20.7 mph N/A   Clear
11:15 AM 65.8 °F - 38.3 °F 36% 30.10 in 10.0 mi South 12.7 mph 18.4 mph N/A   Clear
11:35 AM 67.1 °F - 39.0 °F 36% 30.09 in 10.0 mi SSW 10.4 mph 19.6 mph N/A   Clear
11:55 AM 68.2 °F - 38.8 °F 34% 30.08 in 10.0 mi SW 11.5 mph 19.6 mph N/A   Clear
12:15 PM 69.1 °F - 38.7 °F 33% 30.08 in 10.0 mi SW 13.8 mph 20.7 mph N/A   Clear
12:35 PM 69.8 °F - 38.3 °F 32% 30.06 in 10.0 mi South 13.8 mph 19.6 mph N/A   Clear
1:15 PM 71.6 °F - 39.6 °F 31% 30.05 in 10.0 mi SSW 13.8 mph 21.9 mph N/A   Clear
1:35 PM 72.1 °F - 39.9 °F 31% 30.04 in 10.0 mi South 15.0 mph 21.9 mph N/A   Clear
1:55 PM 72.9 °F - 40.5 °F 31% 30.04 in 10.0 mi SSW 15.0 mph 20.7 mph N/A   Clear
2:35 PM 73.0 °F - 39.9 °F 30% 30.02 in 10.0 mi SSW 13.8 mph 23.0 mph N/A   Clear
3:15 PM 74.1 °F - 40.8 °F 30% 30.00 in 10.0 mi South 16.1 mph 24.2 mph N/A   Clear
3:35 PM 73.8 °F - 40.8 °F 30% 30.00 in 10.0 mi SSW 12.7 mph 23.0 mph N/A   Clear
3:55 PM 73.2 °F - 40.5 °F 31% 29.99 in 10.0 mi SSW 11.5 mph 20.7 mph N/A   Clear
4:15 PM 74.1 °F - 41.2 °F 31% 29.99 in 10.0 mi SSW 12.7 mph 23.0 mph N/A   Clear
4:35 PM 75.0 °F - 40.8 °F 29% 29.98 in 10.0 mi South 15.0 mph 21.9 mph N/A   Clear
4:55 PM 74.7 °F - 39.9 °F 29% 29.98 in 10.0 mi SSW 18.4 mph 27.6 mph N/A   Clear
5:15 PM 73.9 °F - 39.4 °F 29% 29.98 in 10.0 mi SSW 16.1 mph 24.2 mph N/A   Clear
5:35 PM 73.6 °F - 40.1 °F 30% 29.98 in 10.0 mi SSW 17.3 mph 29.9 mph N/A   Clear
5:55 PM 72.9 °F - 39.7 °F 30% 29.98 in 10.0 mi SSW 16.1 mph 23.0 mph N/A   Clear
6:15 PM 72.3 °F - 39.7 °F 31% 29.98 in 10.0 mi SSW 9.2 mph 23.0 mph N/A   Clear
6:35 PM 71.8 °F - 39.6 °F 31% 29.99 in 10.0 mi SSW 10.4 mph 19.6 mph N/A   Clear
6:55 PM 70.7 °F - 38.8 °F 31% 29.99 in 10.0 mi SSW 11.5 mph 18.4 mph N/A   Clear
7:15 PM 69.6 °F - 38.8 °F 33% 30.00 in 10.0 mi South 8.1 mph - N/A   Clear
7:35 PM 68.5 °F - 38.8 °F 34% 30.00 in 10.0 mi SSW 10.4 mph - N/A   Clear
7:55 PM 67.8 °F - 39.0 °F 35% 30.01 in 10.0 mi SSW 9.2 mph - N/A   Clear
8:15 PM 67.3 °F - 39.2 °F 36% 30.02 in 10.0 mi South 8.1 mph - N/A   Clear
8:35 PM 66.7 °F - 39.0 °F 36% 30.03 in 10.0 mi SSW 10.4 mph - N/A   Clear
8:55 PM 66.6 °F - 38.8 °F 36% 30.03 in 10.0 mi South 10.4 mph 16.1 mph N/A   Clear
9:15 PM 66.6 °F - 38.8 °F 36% 30.03 in 10.0 mi SSW 10.4 mph 16.1 mph N/A   Clear
9:35 PM 66.6 °F - 38.8 °F 36% 30.03 in 10.0 mi South 10.4 mph 16.1 mph N/A   Clear
9:55 PM 66.4 °F - 38.5 °F 36% 30.03 in 10.0 mi SSW 9.2 mph - N/A   Clear
10:15 PM 66.4 °F - 38.3 °F 36% 30.04 in 10.0 mi SSW 9.2 mph 17.3 mph N/A   Clear
10:35 PM 66.0 °F - 38.3 °F 36% 30.03 in 10.0 mi SSW 10.4 mph 17.3 mph N/A   Clear
10:55 PM 66.0 °F - 38.3 °F 36% 30.04 in 10.0 mi SSW 8.1 mph - N/A   Clear
11:15 PM 65.5 °F - 38.1 °F 36% 30.03 in 10.0 mi SSW 10.4 mph 16.1 mph N/A   Clear
11:35 PM 65.5 °F - 38.3 °F 37% 30.03 in 10.0 mi SSW 9.2 mph 19.6 mph N/A   Clear
11:55 PM 65.3 °F - 38.3 °F 37% 30.04 in 10.0 mi SSW 9.2 mph 17.3 mph N/A   Clear